     2              OBSERVATION         FILE GPS NAVSTAR    RINEX VERSION / TYPE
GAR2RNX 1.48 Any GPS12 Owner Thu Oct 23 14:19:35            PGM / RUN BY / DATE
** gar2rnx (Garmin to Rinex) generates Rinex2 files         COMMENT
** from a GPS12 (or XL) (Copyright Antonio Tabernero)       COMMENT
** Generated from G12 data file: 400233.g12                 COMMENT
** Options:                                                 COMMENT
Garmin                                                      MARKER NAME
Number of Antenna marker                                    MARKER NUMBER
Your name here Your boss here                               OBSERVER / AGENCY
119 GPS III+ Software 2.06                                  REC # / TYPE / VERS
0 GPS12 Internal Antenna                                    ANT # / TYPE
** Position from first 3D fix of the receiver               COMMENT
  3460534.9700 -4875584.7036 -2215533.4410                  APPROX POSITION XYZ
        0.0000        0.0000        0.0000                  ANTENNA: DELTA H/E/N
     1     0                                                WAVELENGTH FACT L1/2
     2    C1    L1                                          # / TYPES OF OBSERV
  2003    10    23    15     2   34.011376      GPS         TIME OF FIRST OBS
     1                                                      INTERVAL
                                                            END OF HEADER
 03 10 23 15 02 34.0113761  0  6G 6G15G16G18G21G23
  26281748.237 9  19017762.653 9
  25079718.037 7  17884268.724 7
  24760386.848 5  17829505.773 5
  24225271.571 6  18774108.899 6
  26336785.464 7  18669324.862 7
  23875780.066 9  16573915.466 9
 03 10 23 15 02 35.0113937  0  5G 6G15G18G21G23
  26287392.256 9  19047422.549 9
  25084994.564 7  17911997.063 7
  24230849.711 6  18803422.975 6
  26342298.266 7  18698297.460 7
  23880688.030 9  16599707.367 9
 03 10 23 15 02 36.0114113  0  5G 6G15G18G21G23
  26293035.871 9  19077080.700 9
  25090270.625 7  17939723.324 7
  24236427.980 6  18832735.471 6
  26347811.730 7  18727267.902 7
  23885595.420 9  16625497.756 9
 03 10 23 15 02 37.0114270  0  6G 6G15G16G18G21G23
  26298679.285 9  19106737.038 9
  25095546.499 7  17967447.479 7
  24776247.202 5  17912896.857 5
  24242006.200 6  18862046.208 6
  26353324.056 7  18756236.121 7
  23890502.803 9  16651286.607 9
 03 10 23 15 02 38.0114446  0  6G 6G15G16G18G21G23
  26304322.319 9  19136391.757 9
  25100821.578 7  17995169.710 7
  24781534.021 5  17940678.527 5
  24247582.783 6  18891355.484 6
  26358836.213 7  18785202.328 7
  23895409.925 9  16677074.083 9
 03 10 23 15 02 39.0114622  0  6G 6G15G16G18G21G23
  26309965.231 9  19166044.709 9
  25106097.274 7  18022889.922 7
  24786821.840 5  17968458.687 5
  24253158.411 6  18920663.128 6
  26364347.894 7  18814166.409 7
  23900317.121 9  16702860.068 9
 03 10 23 15 02 40.0114798  0  5G 6G15G18G21G23
  26315607.531 9  19195695.946 9
  25111371.577 7  18050608.075 7
  24258736.033 6  18949969.217 6
  26369859.100 7  18843128.365 7
  23905223.902 9  16728644.624 9
 03 10 23 15 02 41.0114974  0  4G 6G15G21G23
  26321249.594 9  19225345.564 9
  25116645.588 7  18078324.317 7
  26375369.634 7  18872088.299 7
  23910130.344 9  16754427.772 9
 03 10 23 15 02 42.0115150  0  6G 6G15G16G18G21G23
  26326891.541 9  19254993.442 9
  25121919.785 7  18106038.526 7
  24802685.141 5  18051822.777 5
  24269881.426 6  19008554.823 6
  26380879.980 7  18901046.112 7
  23915036.444 9  16780209.501 9
 03 10 23 15 02 43.0115325  0  5G 6G15G16G21G23
  26332533.176 9  19284639.683 9
  25127193.026 7  18133750.723 7
  24807972.233 5  18079597.230 5
  26386390.291 7  18930001.866 7
  23919942.550 9  16805989.761 9
 03 10 23 15 02 44.0115501  0  4G 6G15G21G23
  26338174.499 9  19314284.285 9
  25132466.632 7  18161461.082 7
  26391899.795 7  18958955.630 7
  23924847.913 9  16831768.746 9
 03 10 23 15 02 45.0115658  0  6G 6G15G16G18G21G23
  26343815.286 9  19343927.197 9
  25137738.275 7  18189169.392 7
  24818541.688 5  18135139.339 5
  24286620.088 6  19096465.576 6
  26397408.970 7  18987907.294 7
  23929753.496 9  16857546.255 9
 03 10 23 15 02 46.0115834  0  6G 6G15G16G18G21G23
  26349455.931 9  19373568.609 9
  25143010.653 7  18216875.926 7
  24823827.643 5  18162909.704 5
  24292193.981 6  19125762.593 6
  26402917.636 7  19016857.036 7
  23934658.417 9  16883322.539 9
 03 10 23 15 02 47.0116010  0  6G 6G15G16G18G21G23
  26355096.121 9  19403208.385 9
  25148283.090 7  18244580.511 7
  24829112.376 5  18190678.904 5
  24297767.599 6  19155058.172 6
  26408426.642 7  19045804.800 7
  23939562.998 9  16909097.415 9
 03 10 23 15 02 48.0116186  0  6G 6G15G16G18G21G23
  26360736.079 9  19432846.566 9
  25153554.380 7  18272283.205 7
  24834395.516 5  18218446.880 5
  24303341.921 6  19184352.185 6
  26413934.335 7  19074750.551 7
  23944467.693 9  16934871.008 9
 03 10 23 15 02 49.0116362  0  6G 6G15G16G18G21G23
  26366375.521 9  19462483.158 9
  25158825.107 7  18299984.071 7
  24839678.877 5  18246213.385 5
  24308914.792 6  19213644.963 6
  26419442.297 7  19103694.339 7
  23949371.914 9  16960643.239 9
 03 10 23 15 02 50.0116538  0  6G 6G15G16G18G21G23
  26372014.599 9  19492118.220 9
  25164095.972 7  18327683.029 7
  24844962.080 5  18273978.683 5
  24314488.150 6  19242936.164 6
  26424949.882 7  19132636.142 7
  23954276.182 9  16986414.215 9
 03 10 23 15 02 51.0116714  0  6G 6G15G16G18G21G23
  26377653.736 9  19521751.707 9
  25169366.271 7  18355380.140 7
  24850244.962 5  18301742.675 5
  24320061.682 6  19272226.026 6
  26430456.959 7  19161576.022 7
  23959179.986 9  17012183.880 9
 03 10 23 15 02 52.0116890  0  6G 6G15G16G18G21G23
  26383292.508 9  19551383.654 9
  25174636.935 7  18383075.414 7
  24855525.655 5  18329505.311 5
  24325634.138 6  19301514.366 6
  26435963.666 7  19190513.963 7
  23964083.333 9  17037952.270 9
 03 10 23 15 02 53.0117046  0  5G 6G15G16G21G23
  26388931.189 9  19581013.994 9
  25179906.739 7  18410768.798 7
  24860807.753 5  18357266.683 5
  26441469.856 7  19219449.938 7
  23968986.501 9  17063719.340 9
 03 10 23 15 02 54.0117222  0  5G 6G15G16G21G23
  26394569.165 9  19610642.885 9
  25185176.706 7  18438460.404 7
  24866088.569 5  18385026.957 5
  26446976.046 7  19248384.039 7
  23973889.720 9  17089485.179 9
 03 10 23 15 02 55.0117398  0  6G 6G15G16G18G21G23
  26400206.990 9  19640270.232 9
  25190445.602 7  18466150.143 7
  24871369.680 5  18412785.773 5
  24342355.543 5  19389402.482 5
  26452481.510 7  19277316.197 7
  23978792.628 9  17115249.759 9
 03 10 23 15 02 56.0117574  0  6G 6G15G16G18G21G23
  26405844.530 9  19669896.083 9
  25195714.452 7  18493838.137 7
  24876651.662 5  18440543.527 5
  24347926.760 5  19418685.444 5
  26457986.831 7  19306246.480 7
  23983695.227 9  17141013.093 9
 03 10 23 15 02 57.0117750  0  6G 6G15G16G18G21G23
  26411481.859 9  19699520.443 9
  25200982.880 7  18521524.291 7
  24881933.186 5  18468300.005 5
  24353497.531 5  19447966.810 5
  26463491.719 7  19335174.860 7
  23988597.882 9  17166775.211 9
 03 10 23 15 02 58.0117926  0  6G 6G15G16G18G21G23
  26417119.053 9  19729143.347 9
  25206251.113 7  18549208.666 7
  24887215.553 5  18496055.272 5
  24359069.217 5  19477246.967 5
  26468996.112 7  19364101.394 7
  23993500.088 9  17192536.102 9
 03 10 23 15 02 59.0118102  0  5G 6G15G18G21G23
  26422755.964 9  19758764.765 9
  25211519.027 7  18576891.360 7
  24364640.866 6  19506525.806 6
  26474500.226 7  19393026.083 7
  23998401.785 9  17218295.824 9
 03 10 23 15 03  0.0118278  0  5G 6G15G18G21G23
  26428392.324 9  19788384.785 9
  25216786.745 7  18604572.278 7
  24370212.263 6  19535803.318 6
  26480004.414 7  19421948.904 7
  24003303.257 9  17244054.362 9
 03 10 23 15 03  1.0118434  0  6G 6G15G16G18G21G23
  26434028.602 9  19818003.251 9
  25222053.187 7  18632251.379 7
  24903062.357 5  18579327.028 5
  24375783.032 6  19565079.411 6
  26485507.962 7  19450869.868 7
  24008204.923 9  17269811.659 9
